Вернуться в каталог

COSMOS 1809

АктивенНавигацияPO
NORAD 17241·PAYLOAD·🇷🇺 Russia

Запущен Dec 18, 1986 с Plesetsk Cosmodrome

Loading…

Ближайшие Пролёты (ближайшие 24 часа)

TLE

СвежийSource: Space-Track

Эпоха: Sep 14, 2026, 15:12 UTC

1 17241U 86101A   26257.63401208  .00000045  00000-0  27208-4 0  9999
2 17241  82.5309 209.3923 0013973 270.4973 263.4902 13.84501826  7143

Отслеживайте COSMOS 1809 в реальном времени с AllMySat

Download on the App Store